User: anonymous   Login
Location: Unspecified
(0.0000°N, 0.0000°E)
Time: 06:09:29
(UTC+00:00)
Language:

USA 171 - Orbit

View from above orbital plane
View from above orbital plane
View from above satellite
View from above satellite

Ground track
Ground track

The orbit data is extracted from the following two-line orbital elements,

1 27937U 03041A   17289.91977253 0.00000000  00000-0  00000-0 0    09
2 27937   9.5309  64.7678 0047362 210.8231 148.9265  1.00270000    08
Epoch (UTC): 16 October 2017 22:04:28
Eccentricity: 0.0047362
inclination: 9.5309°
perigee height: 35587 km
apogee height: 35986 km
right ascension of ascending node: 64.7678°
argument of perigee: 210.8231°
revolutions per day: 1.00270000
mean anomaly at epoch: 148.9265°
orbit number at epoch: 0

The dashed part of the orbit path shows where the satellite is in the earth's shadow,  

DLR